This is the latest recevied weather packets stored in our database for station/object YT6PT-8. If no packets are shown the sender has not sent any weather packets the latest 10 day(s).
| Time | Temp. | Humidity | Pressure | Rain* | Wind** | Luminosity | Snow |
|---|---|---|---|---|---|---|---|
| 1787907333 | 27.78° C | 45% | 1010.9 hPa | 0 mm | 0.45 m/s, 338° | - | - |
| 1787907049 | 27.78° C | 45% | 1010.9 hPa | 0 mm | 0.45 m/s, 338° | - | - |
| 1787906733 | 28.33° C | 46% | 1010.6 hPa | 0 mm | 2.24 m/s, 338° | - | - |
| 1787906433 | 28.33° C | 46% | 1010.6 hPa | 0 mm | 2.24 m/s, 338° | - | - |
| 1787906132 | 28.33° C | 44% | 1010.6 hPa | 0 mm | 0 m/s | - | - |
| 1787905839 | 28.33° C | 44% | 1010.6 hPa | 0 mm | 0 m/s | - | - |
| 1787905532 | 28.33° C | 45% | 1010.4 hPa | 0 mm | 1.34 m/s, 0° | - | - |
| 1787905239 | 28.33° C | 45% | 1010.4 hPa | 0 mm | 1.34 m/s, 0° | - | - |
| 1787904931 | 28.33° C | 44% | 1010 hPa | 0 mm | 0 m/s | - | - |
| 1787904632 | 28.33° C | 44% | 1010 hPa | 0 mm | 0 m/s | - | - |
| 1787904348 | 28.33° C | 43% | 1010 hPa | 0 mm | 1.79 m/s, 292° | - | - |
| 1787904044 | 28.33° C | 43% | 1010 hPa | 0 mm | 1.79 m/s, 292° | - | - |
| 1787903731 | 27.78° C | 45% | 1009.9 hPa | 0 mm | 0.45 m/s, 22° | - | - |
| 1787903433 | 27.78° C | 45% | 1009.9 hPa | 0 mm | 0.45 m/s, 22° | - | - |
| 1787903132 | 28.33° C | 44% | 1010.1 hPa | 0 mm | 0 m/s | - | - |
| 1787902834 | 28.33° C | 44% | 1010.1 hPa | 0 mm | 0 m/s | - | - |
| 1787902533 | 27.78° C | 45% | 1010.1 hPa | 0 mm | 0.89 m/s, 68° | - | - |
| 1787902233 | 27.78° C | 45% | 1010.1 hPa | 0 mm | 0.89 m/s, 68° | - | - |
| 1787901933 | 27.22° C | 44% | 1010.1 hPa | 0 mm | 0.45 m/s, 68° | - | - |
| 1787901632 | 27.22° C | 44% | 1010.1 hPa | 0 mm | 0.45 m/s, 68° | - | - |
| 1787901334 | 27.22° C | 47% | 1010.2 hPa | 0 mm | 0 m/s | - | - |
| 1787901033 | 27.22° C | 47% | 1010.2 hPa | 0 mm | 0 m/s | - | - |
| 1787900733 | 27.22° C | 46% | 1010.2 hPa | 0 mm | 0 m/s | - | - |
| 1787900434 | 27.22° C | 46% | 1010.2 hPa | 0 mm | 0 m/s | - | - |
| 1787900133 | 27.22° C | 48% | 1010.2 hPa | 0 mm | 0 m/s | - | - |
* Rain latest hour (hover to see other rain measurements)
** Current wind speed in m/s (hover to see current wind gust speed)